Wind_Speed
19 19 18 16 16 15 14 14 14 13 13 13 12 11 9 7 6 4 3 2 3 5 7 5 4 7 7 6 7 5 7 9 8 5 5 9 10 10 12 14 16 19 21 25 32
21 19 18 16 17 17 16 15 15 15 13 12 11 9 8 7 5 4 3 2 1 3 5 3 3 5 7 5 4 8 12 14 16 13 7 6 11 15 14 15 19 19 23 29 31
22 20 19 19 19 18 18 17 16 15 15 14 13 11 9 8 7 7 5 4 1 0 2 2 3 4 6 5 4 6 10 8 9 10 9 9 11 13 15 14 15 18 22 26 32
24 22 20 19 19 18 18 18 17 17 17 16 15 14 13 11 10 9 8 6 5 4 2 2 2 3 3 6 5 7 7 6 3 6 5 6 8 12 11 12 14 17 20 24 26
26 24 22 21 20 19 19 17 17 17 17 16 16 16 16 14 12 10 10 9 8 7 5 4 3 3 2 5 7 5 4 2 2 5 8 8 8 5 9 13 12 15 18 21 23
28 27 25 23 21 20 20 19 20 18 18 17 16 17 16 15 13 12 11 10 11 9 7 6 5 3 3 4 5 5 2 2 4 6 9 11 13 2 5 10 12 14 15 19 20
31 30 28 25 23 22 20 20 20 19 19 18 18 18 17 16 14 13 12 11 11 11 10 8 7 7 6 4 3 2 1 3 3 5 8 12 14 10 9 7 8 12 13 18 19
34 32 30 28 26 24 22 21 20 19 19 19 19 20 18 18 15 14 13 12 12 12 12 12 10 8 8 7 6 4 4 5 6 7 10 11 15 16 16 9 9 11 14 16 17
34 34 32 31 30 26 24 23 21 21 19 20 20 20 19 18 16 15 14 13 12 12 14 14 12 10 10 9 8 8 8 6 7 8 10 14 15 17 17 11 5 10 12 14 18
35 35 34 32 31 29 26 25 23 23 21 21 20 19 18 17 16 16 15 14 13 12 14 15 13 13 13 12 11 9 7 5 9 9 12 14 16 17 16 11 9 10 13 16 17
36 36 36 34 32 29 27 26 26 24 23 23 22 20 18 18 18 18 16 13 12 12 12 13 13 16 12 12 11 10 8 7 11 13 13 16 16 17 17 14 14 13 15 17 17
38 35 36 35 35 30 27 27 26 24 23 22 22 21 20 19 17 16 17 17 16 15 13 13 16 14 11 12 12 11 9 12 13 14 14 16 17 16 16 15 18 18 19 20 17
38 37 36 35 34 32 29 27 25 24 23 22 22 22 20 21 19 18 19 19 18 16 15 16 17 15 14 15 14 12 14 14 12 15 15 15 18 16 16 17 19 21 22 21 14
36 36 36 35 34 34 33 29 25 23 24 24 24 23 21 21 22 21 19 17 16 18 17 18 17 17 15 16 15 15 15 15 15 15 16 18 17 16 16 17 17 15 18 18 19
33 33 34 35 33 34 34 31 28 23 25 25 26 24 23 23 20 19 20 19 20 20 19 19 17 15 14 16 16 18 18 17 16 16 15 16 21 16 15 17 19 18 21 22 24
29 30 29 30 31 32 32 31 31 29 26 26 28 27 25 23 23 24 23 22 22 21 20 20 19 18 19 20 20 18 18 19 19 20 20 19 21 19 18 16 20 18 19 18 16
27 29 29 29 28 27 28 29 30 31 30 27 26 26 25 24 24 25 24 22 21 21 22 22 21 22 24 25 24 23 21 22 24 24 22 21 23 20 18 17 19 18 17 13 12
30 29 31 31 31 30 31 32 32 31 29 30 28 24 25 25 24 24 23 23 23 23 23 24 24 23 25 26 28 27 28 27 26 27 23 23 23 22 21 17 17 16 11 6 10
36 36 35 34 37 37 36 36 32 33 31 29 29 28 28 26 25 25 23 22 23 24 26 27 27 26 28 27 26 28 29 27 27 27 22 20 20 21 21 15 12 9 6 9 11
33 36 38 38 39 41 43 35 32 31 31 33 32 31 29 27 26 26 26 25 25 27 26 25 25 27 27 24 24 26 27 25 25 22 19 18 18 17 15 12 9 8 11 12 13
33 33 34 37 39 39 44 39 34 34 34 33 32 32 31 30 29 29 30 29 29 28 25 22 24 24 26 23 22 23 27 28 24 21 15 15 17 16 14 13 10 10 12 11 16
34 34 34 34 37 37 36 38 37 38 36 34 34 35 35 33 32 33 34 33 30 28 23 22 19 19 25 24 21 24 28 29 27 23 22 21 17 16 15 11 8 9 7 10 14
32 34 36 37 36 36 38 39 38 39 37 38 38 39 37 35 33 32 33 33 31 28 26 23 23 19 22 25 24 25 26 29 25 18 17 20 13 14 11 10 8 4 11 11 13
34 34 35 37 37 37 37 40 40 40 41 40 41 40 38 36 33 31 31 30 29 28 26 23 25 23 18 22 22 24 24 26 25 21 19 20 20 15 9 9 9 8 13 9 13
35 35 35 36 37 37 39 39 38 38 39 40 39 38 36 35 32 31 29 27 27 27 26 25 23 26 23 23 24 24 24 26 24 23 22 21 20 14 12 13 12 12 7 11 13
36 36 36 37 37 38 39 40 40 39 38 38 38 36 35 35 34 32 30 28 31 29 29 30 27 25 24 26 23 23 26 28 32 30 28 27 23 17 15 18 15 15 12 10 14
35 36 38 38 38 38 39 40 41 42 42 43 41 39 39 39 37 35 33 31 31 34 32 32 30 27 24 22 24 26 26 24 25 28 30 30 30 28 25 20 12 16 16 13 14
Wind_Direction
215 215 209 201 202 200 198 190 181 179 178 178 175 168 163 160 156 157 136 94 48 41 73 108 137 119 106 86 68 91 83 57 57 54 48 15 16 32 39 28 36 33 40 33 30
214 213 211 211 204 202 202 202 195 189 188 187 188 188 182 186 186 195 189 156 88 32 72 109 156 121 122 126 97 96 81 68 40 25 28 27 30 24 16 12 26 25 39 36 29
217 213 210 209 208 208 206 208 205 203 200 200 204 207 213 213 215 219 216 200 196 327 83 128 163 153 144 121 91 86 86 65 33 50 36 29 24 29 23 16 15 33 35 31 22
223 220 217 213 212 208 208 208 208 211 213 212 213 215 223 229 229 235 231 225 219 225 193 158 181 179 146 118 100 85 110 82 28 50 51 30 14 349 4 24 19 23 30 30 19
224 227 223 219 217 213 212 209 210 211 216 218 221 221 226 228 233 237 237 233 227 226 203 182 195 177 153 149 119 120 98 45 6 24 351 8 10 7 4 16 15 29 29 25 15
223 226 227 224 221 219 215 212 214 215 214 218 221 223 223 226 227 231 232 230 228 231 220 198 184 205 188 208 146 143 160 271 330 346 345 351 357 270 345 8 25 29 31 23 11
223 223 227 228 225 223 222 220 218 219 220 220 225 228 227 230 229 231 233 230 226 225 221 208 197 194 209 223 227 168 233 283 295 314 332 343 353 357 318 333 11 16 22 17 9
224 225 225 229 232 229 228 227 225 224 223 223 226 230 229 232 232 233 234 233 225 221 216 213 209 211 224 226 248 241 250 278 296 310 330 340 348 342 333 331 356 351 360 357 359
228 227 227 228 232 233 234 232 229 229 226 224 225 227 230 234 236 234 232 232 232 224 212 212 215 221 234 236 234 240 235 256 275 306 318 334 337 332 326 325 354 333 355 360 356
231 230 228 228 230 231 233 233 230 228 226 223 223 226 229 233 231 231 229 228 227 223 211 210 216 225 237 245 238 237 239 243 271 302 311 321 324 325 327 324 319 318 336 336 345
232 231 231 228 229 229 230 231 231 227 225 224 223 223 224 228 226 227 229 225 221 221 210 210 222 233 240 246 246 249 242 245 266 290 300 307 311 317 322 326 318 320 313 320 328
231 230 231 229 228 226 228 229 227 224 225 221 221 221 222 224 224 223 223 217 214 214 210 211 222 234 234 244 247 251 251 245 261 274 289 304 311 312 311 320 320 320 314 319 321
230 227 228 228 226 224 224 226 222 220 221 218 218 221 216 221 222 219 221 222 221 216 210 216 227 233 236 242 246 246 245 254 265 279 291 303 309 304 301 313 320 312 309 313 318
223 222 224 223 223 220 222 221 216 217 217 218 216 217 209 214 219 219 222 223 224 228 224 222 226 239 240 243 246 254 263 272 274 278 288 302 302 295 310 312 310 330 317 322 329
224 224 222 220 220 217 219 219 212 213 218 217 216 215 214 215 220 226 228 229 232 233 234 235 237 240 249 251 248 254 259 263 271 276 280 294 296 300 305 319 312 317 323 335 331
223 221 220 216 215 215 214 216 217 216 222 219 223 219 222 222 222 230 234 236 239 240 243 246 244 245 248 249 249 256 264 270 273 275 278 286 292 299 299 303 301 314 320 333 332
218 220 216 214 211 214 214 215 219 222 224 223 222 221 223 226 228 232 232 234 239 242 244 249 254 251 253 255 256 260 262 263 267 271 277 280 283 294 297 297 304 310 323 318 311
220 222 223 221 220 220 223 226 225 228 227 227 223 217 220 222 228 235 239 242 246 251 254 253 252 254 256 255 256 256 256 259 262 269 276 281 285 292 294 298 302 311 318 316 330
229 232 232 227 229 227 226 229 229 226 227 227 221 217 226 229 231 237 241 244 247 252 254 255 255 257 258 260 256 259 254 254 256 264 269 274 280 290 292 298 299 305 289 322 325
231 232 233 232 230 232 228 229 231 227 226 223 223 224 228 232 234 241 244 250 251 250 253 259 262 264 266 263 258 251 250 245 252 260 265 272 279 285 290 294 299 295 298 310 317
234 232 231 231 229 231 229 229 232 227 225 227 230 232 232 234 239 243 245 251 250 250 254 256 257 258 264 263 254 248 242 245 243 249 258 264 273 282 290 301 303 291 297 314 335
232 232 231 232 231 230 225 230 229 230 230 230 232 233 233 236 242 244 246 245 247 250 253 259 264 258 249 259 255 242 237 237 239 250 260 263 279 287 301 300 298 298 297 315 321
232 230 229 230 230 230 230 230 230 228 232 232 234 236 239 240 243 243 243 241 240 242 246 251 259 253 236 251 254 245 238 238 243 250 256 262 272 285 320 314 294 307 292 312 313
233 230 229 229 229 228 228 231 230 230 232 233 236 238 239 241 240 237 238 241 239 240 236 240 247 245 235 235 245 250 246 240 245 255 259 257 264 271 298 316 297 282 304 320 323
235 233 230 230 228 227 227 229 229 230 232 234 235 236 236 237 236 236 238 242 238 234 235 239 241 238 234 230 230 240 245 235 242 255 261 262 264 258 275 298 288 294 296 308 318
232 232 231 231 230 229 228 228 227 228 228 231 233 233 233 234 235 236 237 238 241 237 235 240 242 237 228 223 221 232 241 247 251 252 260 270 276 282 292 308 282 266 281 288 305
233 233 231 230 230 229 230 231 229 229 228 230 232 233 234 235 235 237 236 234 238 241 240 242 245 252 246 230 230 234 234 238 246 253 260 266 277 285 288 297 271 253 275 278 295
Height
5877 5880 5882 5884 5886 5889 5891 5894 5896 5898 5901 5903 5905 5906 5908 5911 5912 5913 5915 5917 5916 5917 5918 5919 5918 5920 5920 5922 5923 5924 5925 5924 5925 5926 5926 5926 5925 5924 5923 5921 5918 5916 5914 5914 5911
5875 5877 5879 5882 5884 5887 5890 5893 5895 5897 5899 5902 5904 5906 5908 5910 5912 5914 5915 5916 5917 5917 5918 5919 5919 5920 5921 5922 5924 5926 5926 5927 5928 5928 5929 5928 5927 5925 5924 5922 5920 5917 5914 5913 5910
5872 5875 5877 5880 5883 5885 5888 5891 5893 5896 5898 5901 5903 5905 5908 5909 5911 5913 5915 5916 5916 5917 5918 5919 5920 5921 5921 5922 5923 5926 5927 5927 5928 5928 5929 5928 5927 5926 5925 5923 5921 5918 5914 5912 5910
5869 5872 5875 5878 5880 5883 5885 5888 5891 5893 5896 5899 5901 5903 5906 5908 5911 5912 5914 5915 5916 5917 5919 5920 5920 5921 5922 5922 5923 5926 5927 5927 5928 5928 5928 5928 5927 5926 5925 5923 5921 5918 5915 5913 5910
5865 5869 5872 5875 5877 5880 5883 5885 5888 5891 5894 5896 5899 5901 5904 5906 5908 5910 5912 5914 5915 5917 5918 5919 5920 5921 5922 5922 5924 5925 5926 5927 5927 5926 5927 5927 5927 5926 5924 5922 5920 5918 5915 5913 5910
5861 5865 5868 5871 5874 5877 5880 5883 5886 5889 5891 5894 5896 5899 5901 5904 5906 5908 5911 5912 5914 5915 5917 5918 5919 5920 5921 5922 5924 5926 5926 5926 5926 5925 5926 5926 5926 5925 5924 5921 5920 5917 5914 5912 5909
5856 5861 5864 5867 5871 5874 5877 5880 5883 5886 5888 5890 5893 5896 5899 5901 5903 5906 5908 5910 5912 5913 5916 5917 5918 5920 5920 5921 5923 5924 5925 5925 5925 5925 5925 5925 5924 5924 5923 5920 5918 5916 5914 5911 5908
5851 5856 5860 5863 5867 5870 5874 5877 5879 5883 5885 5888 5891 5893 5895 5898 5901 5903 5906 5908 5909 5911 5914 5915 5917 5918 5919 5920 5921 5922 5923 5924 5923 5924 5924 5924 5923 5923 5922 5919 5917 5916 5914 5911 5907
5846 5850 5854 5858 5862 5866 5870 5873 5876 5879 5882 5885 5888 5890 5893 5895 5898 5900 5903 5905 5907 5909 5911 5913 5915 5917 5917 5919 5921 5921 5922 5923 5922 5922 5923 5922 5921 5921 5920 5918 5916 5914 5913 5910 5906
5840 5844 5849 5853 5857 5862 5866 5869 5873 5876 5879 5882 5884 5888 5890 5893 5895 5897 5899 5902 5904 5906 5909 5911 5913 5914 5915 5917 5919 5920 5921 5921 5920 5921 5921 5920 5920 5919 5919 5917 5914 5913 5911 5907 5905
5833 5838 5842 5848 5852 5858 5862 5865 5870 5873 5875 5878 5881 5883 5886 5888 5891 5894 5896 5899 5901 5904 5906 5909 5911 5911 5914 5915 5916 5917 5919 5919 5918 5918 5919 5918 5918 5917 5916 5915 5912 5910 5908 5904 5903
5826 5831 5836 5841 5846 5852 5856 5860 5863 5868 5871 5873 5876 5879 5882 5885 5888 5892 5894 5897 5897 5900 5904 5907 5908 5909 5911 5912 5913 5913 5915 5916 5916 5916 5917 5917 5916 5915 5913 5911 5908 5907 5904 5902 5900
5819 5824 5829 5834 5839 5846 5850 5854 5858 5862 5867 5870 5872 5875 5879 5882 5885 5888 5890 5892 5895 5898 5901 5903 5906 5907 5909 5910 5910 5911 5911 5913 5915 5914 5914 5915 5914 5912 5911 5909 5906 5904 5900 5898 5897
5813 5818 5823 5828 5835 5839 5844 5848 5853 5858 5863 5866 5869 5871 5876 5878 5881 5884 5887 5891 5893 5895 5898 5900 5902 5904 5906 5907 5909 5908 5910 5911 5912 5912 5912 5912 5912 5910 5908 5906 5903 5902 5897 5896 5896
5808 5812 5817 5822 5827 5832 5838 5843 5849 5854 5858 5862 5864 5868 5871 5875 5878 5881 5884 5887 5889 5891 5895 5897 5899 5901 5903 5904 5905 5905 5906 5907 5907 5908 5909 5908 5907 5908 5906 5903 5900 5899 5896 5895 5893
5803 5807 5812 5817 5821 5826 5831 5837 5843 5849 5852 5856 5859 5863 5867 5870 5873 5876 5880 5882 5885 5888 5891 5892 5895 5897 5898 5899 5900 5902 5903 5903 5903 5903 5904 5905 5904 5904 5903 5901 5897 5897 5895 5894 5891
5798 5802 5807 5812 5817 5821 5826 5831 5837 5841 5847 5851 5854 5859 5862 5866 5869 5871 5875 5878 5881 5884 5886 5887 5890 5892 5893 5894 5896 5897 5899 5899 5899 5899 5901 5900 5900 5900 5899 5897 5894 5894 5893 5892 5889
5793 5797 5801 5807 5812 5816 5820 5825 5830 5835 5841 5845 5850 5854 5857 5861 5864 5866 5870 5874 5877 5879 5881 5883 5885 5887 5888 5890 5890 5891 5893 5894 5895 5896 5896 5896 5896 5896 5895 5893 5891 5890 5890 5888 5888
5786 5790 5795 5801 5805 5809 5814 5818 5824 5829 5835 5839 5844 5848 5851 5855 5859 5861 5865 5869 5871 5873 5875 5877 5879 5882 5882 5883 5885 5886 5887 5889 5890 5891 5892 5893 5892 5892 5890 5890 5889 5887 5887 5885 5884
5777 5782 5788 5793 5796 5800 5806 5812 5817 5823 5828 5833 5837 5841 5845 5849 5853 5856 5859 5863 5865 5867 5868 5871 5874 5874 5875 5878 5879 5880 5882 5884 5885 5887 5889 5889 5889 5888 5887 5887 5886 5885 5883 5883 5881
5769 5774 5779 5783 5788 5792 5798 5805 5810 5816 5820 5826 5829 5834 5838 5843 5847 5851 5853 5856 5857 5860 5863 5866 5868 5871 5870 5871 5873 5875 5877 5879 5882 5883 5886 5887 5887 5885 5884 5884 5883 5882 5880 5880 5878
5761 5766 5771 5775 5780 5785 5792 5798 5803 5807 5812 5818 5822 5826 5831 5836 5841 5844 5846 5847 5850 5854 5857 5859 5862 5865 5866 5865 5867 5869 5871 5874 5877 5881 5882 5882 5885 5883 5882 5881 5880 5879 5878 5877 5874
5752 5758 5762 5766 5771 5777 5784 5788 5793 5799 5804 5810 5814 5819 5824 5830 5834 5837 5838 5841 5844 5847 5850 5854 5856 5859 5863 5863 5863 5865 5868 5871 5874 5876 5878 5879 5882 5880 5880 5878 5877 5877 5874 5874 5872
5744 5749 5754 5758 5764 5770 5776 5779 5785 5791 5797 5802 5806 5811 5817 5822 5826 5829 5832 5835 5838 5841 5845 5848 5850 5854 5859 5860 5861 5861 5864 5867 5871 5872 5873 5874 5876 5878 5877 5877 5876 5874 5872 5870 5868
5735 5739 5744 5749 5755 5760 5766 5771 5777 5783 5788 5793 5797 5803 5809 5813 5818 5821 5825 5829 5832 5835 5838 5842 5846 5849 5853 5855 5857 5858 5861 5863 5865 5866 5868 5869 5871 5873 5873 5872 5873 5872 5870 5867 5864
5726 5731 5735 5740 5745 5751 5755 5761 5767 5773 5779 5783 5788 5794 5800 5804 5809 5814 5818 5822 5823 5828 5832 5834 5838 5842 5846 5849 5851 5854 5856 5858 5860 5861 5862 5863 5865 5867 5868 5869 5868 5869 5868 5866 5863
5716 5721 5726 5731 5736 5742 5747 5752 5757 5763 5768 5772 5779 5785 5790 5794 5800 5805 5811 5815 5818 5821 5825 5828 5831 5834 5837 5842 5845 5847 5851 5853 5855 5857 5858 5859 5860 5861 5862 5863 5864 5864 5864 5864 5861